Location: �couen
(49.0206°N, 2.3831°E)
Time: 05:49:01
(UTC+00:00)

Cosmos 1758 - Pass Details

Date: 05 June 2022
Orbit: 538 x 557 km, 82.5° (Epoch: 03 July)

Event Time Altitude Azimuth Distance (km) Brightness Sun altitude
Rises 23:02:41 0° 341° (NNW) 2,725 8.6 -17.6°
Reaches altitude 10° 23:05:00 10° 332° (NNW) 1,830 7.1 -17.7°
Maximum altitude 23:08:35 32° 269° (W) 961 4.6 -17.8°
Enters shadow 23:10:13 23° 227° (SW) 1,194 4.7 -17.8°
